,,Stat1,,Stat2,,Stat3,,Stat4,,Wind1,,Wind1,
time,status,PR1M_SUM,status,RH1M_AVG,status,SR1M_AVG,status,TA1M_AVG,status,W1dAve1m,status,W1sAve1m,
1999-08-08, 15:45:00,VALID,0,VALID,69.9484,VALID,376.139,VALID,25.8345,VALID,59,VALID,0.966346,
1999-08-08, 15:46:00,VALID,0,VALID,70.3197,VALID,462.201,VALID,25.9449,VALID,178,VALID,0.780849,
1999-08-08, 15:47:00,VALID,0,VALID,70.6097,VALID,502.717,VALID,26.074,VALID,84,VALID,0.972039,
1999-08-08, 15:48:00,VALID,0,VALID,69.7501,VALID,491.544,VALID,26.2617,VALID,74,VALID,0.442645,
1999-08-08, 15:49:00,VALID,0,VALID,67.8706,VALID,478.859,VALID,26.517,VALID,266,VALID,0.412162,
1999-08-08, 15:50:00,VALID,0,VALID,67.7791,VALID,481.848,VALID,26.7176,VALID,267,VALID,0.396382,
1999-08-08, 15:51:01,VALID,0,VALID,66.5965,VALID,485.193,VALID,26.8277,VALID,297,VALID,0.490132,
1999-08-08, 15:52:00,VALID,0,VALID,67.1089,VALID,490.559,VALID,26.8306,VALID,296,VALID,0.442229,
1999-08-08, 15:53:00,VALID,0,VALID,67.4917,VALID,496.757,VALID,26.9445,VALID,180,VALID,0.131757,
1999-08-08, 15:54:00,VALID,0,VALID,65.9098,VALID,366.871,VALID,27.1132,VALID,150,VALID,0.91226,
1999-08-08, 15:55:00,VALID,0,VALID,66.7351,VALID,148.701,VALID,26.86,VALID,110,VALID,0.981086,
1999-08-08, 15:56:00,VALID,0,VALID,67.9851,VALID,143.403,VALID,26.6487,VALID,124,VALID,0.641387,
1999-08-08, 15:57:00,VALID,0,VALID,68.6107,VALID,222.058,VALID,26.4005,VALID,65,VALID,0.537162,
1999-08-08, 15:58:00,VALID,0,VALID,69.2529,VALID,299.304,VALID,26.1794,VALID,254,VALID,0.224918,
1999-08-08, 15:59:00,VALID,0,VALID,70.6325,VALID,253.829,VALID,26.1833,VALID,134,VALID,0.707031,
1999-08-08, 16:00:00,VALID,0,VALID,70.4075,VALID,333.673,VALID,26.2387,VALID,42,VALID,0.621505,
1999-08-08, 16:01:00,VALID,0,VALID,69.1804,VALID,479.844,VALID,26.329,VALID,259,VALID,0.752956,
1999-08-08, 16:02:00,VALID,0,VALID,71.0217,VALID,494.091,VALID,26.2969,VALID,93,VALID,1.46274,
1999-08-08, 16:03:00,VALID,0,VALID,69.8454,VALID,450.875,VALID,26.3947,VALID,68,VALID,0.646998,
1999-08-08, 16:04:00,VALID,0,VALID,69.5339,VALID,331.89,VALID,26.3646,VALID,105,VALID,1.26829,
1999-08-08, 16:05:00,VALID,0,VALID,69.558,VALID,272.746,VALID,26.1568,VALID,83,VALID,0.65625,
1999-08-08, 16:06:00,VALID,0,VALID,69.9115,VALID,425.642,VALID,26.1439,VALID,70,VALID,1.26254,
1999-08-08, 16:07:00,VALID,0,VALID,69.9459,VALID,438.7,VALID,26.0927,VALID,56,VALID,1.07936,
1999-08-08, 16:08:00,VALID,0,VALID,70.1608,VALID,441.145,VALID,25.931,VALID,79,VALID,0.959293,
1999-08-08, 16:09:00,VALID,0,VALID,70.3134,VALID,403.21,VALID,25.8918,VALID,117,VALID,0.712627,
1999-08-08, 16:10:00,VALID,0,VALID,70.7686,VALID,269.01,VALID,25.9821,VALID,92,VALID,0.775441,
1999-08-08, 16:11:00,VALID,0,VALID,70.9988,VALID,255.341,VALID,26.0345,VALID,92,VALID,1.44572,
1999-08-08, 16:12:00,VALID,0,VALID,70.2701,VALID,340.907,VALID,25.8973,VALID,91,VALID,0.72237,
1999-08-08, 16:13:00,VALID,0,VALID,71.6422,VALID,362.931,VALID,25.8915,VALID,116,VALID,1.15435,
1999-08-08, 16:14:00,VALID,0,VALID,70.4049,VALID,415.928,VALID,25.995,VALID,61,VALID,0.885896,
1999-08-08, 16:15:00,VALID,0,VALID,70.6351,VALID,415.589,VALID,26.0018,VALID,90,VALID,1.01521,
1999-08-08, 16:16:00,VALID,0,VALID,70.1506,VALID,370.199,VALID,26.0021,VALID,70,VALID,1.05304,
1999-08-08, 16:17:00,VALID,0,VALID,69.202,VALID,210.409,VALID,26.0727,VALID,67,VALID,0.927576,
1999-08-08, 16:18:00,VALID,0,VALID,69.4016,VALID,316.472,VALID,26.0371,VALID,92,VALID,1.26522,
1999-08-08, 16:19:00,VALID,0,VALID,69.9166,VALID,409.951,VALID,26.0183,VALID,101,VALID,1.46854,
1999-08-08, 16:20:00,VALID,0,VALID,69.7119,VALID,265.19,VALID,26.1021,VALID,95,VALID,0.929688,
1999-08-08, 16:21:00,VALID,0,VALID,70.5499,VALID,206.096,VALID,26.1244,VALID,111,VALID,0.933488,
1999-08-08, 16:22:00,VALID,0,VALID,70.0591,VALID,246.731,VALID,26.0471,VALID,75,VALID,0.946752,
1999-08-08, 16:23:00,VALID,0,VALID,70.6745,VALID,175.599,VALID,25.8485,VALID,86,VALID,1.27919,
1999-08-08, 16:24:00,VALID,0,VALID,72.648,VALID,221.311,VALID,25.6737,VALID,87,VALID,1.0625,
1999-08-08, 16:25:00,VALID,0,VALID,72.3619,VALID,315.538,VALID,25.732,VALID,62,VALID,0.777872,
1999-08-08, 16:26:00,VALID,0,VALID,70.6516,VALID,341.23,VALID,25.787,VALID,64,VALID,0.57492,
1999-08-08, 16:27:00,VALID,0,VALID,71.2569,VALID,352.386,VALID,25.8488,VALID,3,VALID,0.419819,
1999-08-08, 16:28:00,VALID,0,VALID,70.8157,VALID,250.009,VALID,25.9329,VALID,254,VALID,0.309451,
1999-08-08, 16:29:00,VALID,0,VALID,71.2709,VALID,210.698,VALID,25.9465,VALID,191,VALID,0.288218,
1999-08-08, 16:30:00,VALID,0,VALID,71.8584,VALID,302.513,VALID,25.9679,VALID,251,VALID,0.181743,
1999-08-08, 16:31:00,VALID,0,VALID,71.4019,VALID,308.117,VALID,26.0429,VALID,111,VALID,0.698602,
1999-08-08, 16:32:00,VALID,0,VALID,70.8856,VALID,326.779,VALID,25.9588,VALID,83,VALID,0.697368,
1999-08-08, 16:33:00,VALID,0,VALID,71.2315,VALID,334.251,VALID,25.6993,VALID,96,VALID,0.574747,
1999-08-08, 16:34:00,VALID,0,VALID,71.763,VALID,341.705,VALID,25.7517,VALID,154,VALID,0.417468,
1999-08-08, 16:35:00,VALID,0,VALID,71.5392,VALID,336.662,VALID,25.9142,VALID,293,VALID,0.405839,
1999-08-08, 16:36:00,VALID,0,VALID,70.8945,VALID,334.964,VALID,25.9883,VALID,291,VALID,0.510099,
1999-08-08, 16:37:00,VALID,0,VALID,70.513,VALID,327.407,VALID,25.9908,VALID,312,VALID,1.27259,
1999-08-08, 16:38:00,VALID,0,VALID,72.8668,VALID,345.084,VALID,25.7598,VALID,347,VALID,0.667558,
1999-08-08, 16:39:00,VALID,0,VALID,73.4848,VALID,365.801,VALID,25.8158,VALID,123,VALID,0.49301,
1999-08-08, 16:40:00,VALID,0,VALID,73.8077,VALID,368.127,VALID,25.9931,VALID,94,VALID,1.15933,
1999-08-08, 16:41:00,VALID,0,VALID,71.3561,VALID,365.954,VALID,26.1704,VALID,15,VALID,0.156461,
1999-08-08, 16:42:00,VALID,0,VALID,68.3576,VALID,355.816,VALID,26.3714,VALID,291,VALID,0.369591,
1999-08-08, 16:43:00,VALID,0,VALID,69.1219,VALID,336.985,VALID,26.5073,VALID,253,VALID,0.409951,
1999-08-08, 16:44:00,VALID,0,VALID,69.188,VALID,255.154,VALID,26.4908,VALID,354,VALID,0.520008,
1999-08-08, 16:45:01,VALID,0,VALID,68.9502,VALID,276.991,VALID,26.3397,VALID,278,VALID,0.687922,
1999-08-08, 16:46:00,VALID,0,VALID,68.7302,VALID,305.078,VALID,26.2222,VALID,311,VALID,0.909128,
1999-08-08, 16:47:00,VALID,0,VALID,70.1748,VALID,300.697,VALID,25.9704,VALID,307,VALID,0.459498,
1999-08-08, 16:48:00,VALID,0,VALID,71.1361,VALID,288.47,VALID,25.8209,VALID,292,VALID,0.227179,
1999-08-08, 16:49:00,VALID,0,VALID,71.7007,VALID,273.68,VALID,25.8248,VALID,17,VALID,0.368454,
1999-08-08, 16:50:00,VALID,0,VALID,70.8805,VALID,297.606,VALID,25.9251,VALID,312,VALID,0.108774,
1999-08-08, 16:51:00,VALID,0,VALID,71.1259,VALID,297.555,VALID,26.0387,VALID,333,VALID,0.541324,
1999-08-08, 16:52:00,VALID,0,VALID,70.761,VALID,243.709,VALID,26.1096,VALID,274,VALID,0.356326,
1999-08-08, 16:53:00,VALID,0,VALID,69.2732,VALID,202.955,VALID,26.1969,VALID,223,VALID,0.340583,
1999-08-08, 16:54:00,VALID,0,VALID,69.1575,VALID,199.864,VALID,26.129,VALID,272,VALID,0.143914,
1999-08-08, 16:55:00,VALID,0,VALID,69.3241,VALID,197.623,VALID,26.0154,VALID,266,VALID,0,
1999-08-08, 16:56:00,VALID,0,VALID,69.9611,VALID,195.398,VALID,26.0031,VALID,273,VALID,0.0575658,
1999-08-08, 16:57:00,VALID,0,VALID,70.3884,VALID,192.546,VALID,25.854,VALID,333,VALID,0.873522,
1999-08-08, 16:58:00,VALID,0,VALID,71.66,VALID,186.416,VALID,25.5912,VALID,315,VALID,0.49359,
1999-08-08, 16:59:00,VALID,0,VALID,73.0867,VALID,177.331,VALID,25.4272,VALID,66,VALID,0.259868,
1999-08-08, 17:00:00,VALID,0,VALID,73.6958,VALID,168.246,VALID,25.3431,VALID,83,VALID,0.188834,
1999-08-08, 17:01:00,VALID,0,VALID,73.706,VALID,160.503,VALID,25.3104,VALID,124,VALID,0.407939,
1999-08-08, 17:02:00,VALID,0,VALID,74.2821,VALID,169.774,VALID,25.2525,VALID,79,VALID,0.687089,
1999-08-08, 17:03:00,VALID,0,VALID,75.2167,VALID,213.296,VALID,25.2774,VALID,95,VALID,0.755345,
1999-08-08, 17:04:00,VALID,0,VALID,74.1803,VALID,201.444,VALID,25.3754,VALID,68,VALID,0.725329,
1999-08-08, 17:05:00,VALID,0,VALID,73.1834,VALID,179.352,VALID,25.3596,VALID,136,VALID,0.154561,
1999-08-08, 17:06:00,VALID,0,VALID,74.2757,VALID,126.558,VALID,25.2713,VALID,96,VALID,0.726963,
1999-08-08, 17:07:00,VALID,0,VALID,74.6356,VALID,121.345,VALID,25.2198,VALID,88,VALID,0.595806,
1999-08-08, 17:08:00,VALID,0,VALID,74.4791,VALID,118.322,VALID,25.2425,VALID,237,VALID,0.283346,
1999-08-08, 17:09:00,VALID,0,VALID,74.104,VALID,116.132,VALID,25.2567,VALID,261,VALID,0.125,
1999-08-08, 17:10:00,VALID,0,VALID,74.2541,VALID,122.211,VALID,25.2172,VALID,183,VALID,0.146587,
1999-08-08, 17:11:00,VALID,0,VALID,74.9954,VALID,135.083,VALID,25.1823,VALID,127,VALID,0.180715,
1999-08-08, 17:12:00,VALID,0,VALID,75.3604,VALID,154.135,VALID,25.1364,VALID,166,VALID,0.284334,
1999-08-08, 17:13:00,VALID,0,VALID,75.8156,VALID,195.347,VALID,25.1493,VALID,264,VALID,0.386824,
1999-08-08, 17:14:00,VALID,0,VALID,74.7678,VALID,204.245,VALID,25.1684,VALID,327,VALID,0.296474,
1999-08-08, 17:15:00,VALID,0,VALID,75.1722,VALID,195.585,VALID,25.1037,VALID,132,VALID,0.252673,
1999-08-08, 17:16:00,VALID,0,VALID,74.4741,VALID,175.955,VALID,25.1276,VALID,157,VALID,0.494284,
1999-08-08, 17:17:01,VALID,0,VALID,75.0654,VALID,159.246,VALID,25.0496,VALID,185,VALID,0.0173142,
1999-08-08, 17:18:00,VALID,0,VALID,75.3108,VALID,148.429,VALID,25.1176,VALID,292,VALID,0.413035,
1999-08-08, 17:19:00,VALID,0,VALID,75.4227,VALID,142.962,VALID,25.1687,VALID,267,VALID,0.598273,
1999-08-08, 17:20:00,VALID,0,VALID,74.5453,VALID,141.264,VALID,25.0791,VALID,337,VALID,1.10095,
1999-08-08, 17:21:00,VALID,0,VALID,75.4265,VALID,139.565,VALID,24.8368,VALID,52,VALID,0.606208,
1999-08-08, 17:22:00,VALID,0,VALID,76.0839,VALID,136.152,VALID,24.743,VALID,346,VALID,0.603766,
1999-08-08, 17:23:00,VALID,0,VALID,76.5557,VALID,138.411,VALID,24.7189,VALID,306,VALID,0.142681,
1999-08-08, 17:24:00,VALID,0,VALID,76.6905,VALID,149.109,VALID,24.806,VALID,47,VALID,0.381098,
1999-08-08, 17:25:00,VALID,0,VALID,76.2645,VALID,137.85,VALID,24.8639,VALID,108,VALID,0.595017,
1999-08-08, 17:26:00,VALID,0,VALID,76.1882,VALID,124.249,VALID,24.9457,VALID,68,VALID,0.450247,
1999-08-08, 17:27:00,VALID,0,VALID,76.0063,VALID,120.071,VALID,24.9677,VALID,265,VALID,0.130551,
1999-08-08, 17:28:00,VALID,0,VALID,76.1907,VALID,113.466,VALID,24.9551,VALID,230,VALID,0.0606497,
1999-08-08, 17:29:00,VALID,0,VALID,75.8983,VALID,107.302,VALID,24.9493,VALID,311,VALID,0.260346,
1999-08-08, 17:30:00,VALID,0,VALID,76.0038,VALID,103.057,VALID,24.8296,VALID,191,VALID,0.529447,
1999-08-08, 17:31:00,VALID,0,VALID,76.0127,VALID,102.208,VALID,24.7031,VALID,243,VALID,0.193257,
1999-08-08, 17:32:00,VALID,0,VALID,77.0592,VALID,104.177,VALID,24.639,VALID,40,VALID,0.288872,
1999-08-08, 17:33:00,VALID,0,VALID,77.1292,VALID,107.879,VALID,24.6096,VALID,92,VALID,0.411529,
1999-08-08, 17:34:00,VALID,0,VALID,76.8609,VALID,112.515,VALID,24.5543,VALID,102,VALID,0.373972,
1999-08-08, 17:35:00,VALID,0,VALID,77.7828,VALID,117.524,VALID,24.464,VALID,94,VALID,0.510691,
1999-08-08, 17:36:00,VALID,0,VALID,78.6754,VALID,127.679,VALID,24.4226,VALID,104,VALID,0.943257,
1999-08-08, 17:37:00,VALID,0,VALID,77.9951,VALID,129.003,VALID,24.3876,VALID,352,VALID,0.748311,
1999-08-08, 17:38:00,VALID,0,VALID,76.9372,VALID,123.264,VALID,24.3628,VALID,270,VALID,0.297075,
1999-08-08, 17:39:00,VALID,0,VALID,77.3339,VALID,114.264,VALID,24.3857,VALID,241,VALID,0.229852,
1999-08-08, 17:40:00,VALID,0,VALID,76.5595,VALID,106.725,VALID,24.3857,VALID,277,VALID,0.457889,
1999-08-08, 17:41:00,VALID,0,VALID,76.8698,VALID,103.617,VALID,24.3463,VALID,306,VALID,0.399916,
1999-08-08, 17:42:00,VALID,0,VALID,77.3212,VALID,98.7945,VALID,24.302,VALID,314,VALID,0.453125,
1999-08-08, 17:43:00,VALID,0,VALID,77.4661,VALID,93.9889,VALID,24.2176,VALID,316,VALID,0.424548,
1999-08-08, 17:44:00,VALID,0,VALID,78.3575,VALID,87.1456,VALID,24.1461,VALID,288,VALID,0.427015,
1999-08-08, 17:45:00,VALID,0,VALID,78.6449,VALID,80.4891,VALID,24.0876,VALID,315,VALID,0.346284,
1999-08-08, 17:46:00,VALID,0,VALID,79.9025,VALID,80.9816,VALID,24.0202,VALID,1,VALID,0.541867,
1999-08-08, 17:47:00,VALID,0,VALID,79.4193,VALID,82.3061,VALID,23.9788,VALID,336,VALID,0.379112,
1999-08-08, 17:48:00,VALID,0,VALID,79.3786,VALID,79.7759,VALID,23.9368,VALID,299,VALID,0.248285,
1999-08-08, 17:49:00,VALID,0,VALID,79.9814,VALID,78.2137,VALID,23.9177,VALID,109,VALID,0.623311,
1999-08-08, 17:50:00,VALID,0,VALID,80.7545,VALID,73.7647,VALID,23.9523,VALID,133,VALID,0.658306,
1999-08-08, 17:51:01,VALID,0,VALID,80.5422,VALID,68.9422,VALID,23.9982,VALID,136,VALID,0.446752,
1999-08-08, 17:52:00,VALID,0,VALID,79.9089,VALID,64.7989,VALID,24.0085,VALID,203,VALID,0.304071,
1999-08-08, 17:53:00,VALID,0,VALID,79.7614,VALID,62.0819,VALID,23.9591,VALID,308,VALID,0.0301943,
1999-08-08, 17:54:00,VALID,0,VALID,80.3921,VALID,59.0763,VALID,23.9597,VALID,8,VALID,0.388221,
1999-08-08, 17:55:00,VALID,0,VALID,80.8372,VALID,56.5631,VALID,23.9756,VALID,101,VALID,0.642681,
1999-08-08, 17:56:00,VALID,0,VALID,80.9885,VALID,54.3726,VALID,23.9344,VALID,99,VALID,1.20865,
1999-08-08, 17:57:00,VALID,0,VALID,81.4259,VALID,51.401,VALID,23.8727,VALID,93,VALID,1.37732,
1999-08-08, 17:58:00,VALID,0,VALID,81.5582,VALID,48.7859,VALID,23.8342,VALID,94,VALID,1.70641,
1999-08-08, 17:59:00,VALID,0,VALID,81.3217,VALID,45.6615,VALID,23.731,VALID,97,VALID,2.23746,
1999-08-08, 18:00:00,VALID,0,VALID,82.021,VALID,42.486,VALID,23.6207,VALID,96,VALID,1.44572,
1999-08-08, 18:01:00,VALID,0,VALID,82.0427,VALID,38.0031,VALID,23.5593,VALID,104,VALID,0.530405,
1999-08-08, 18:02:00,VALID,0,VALID,82.3911,VALID,33.9956,VALID,23.5272,VALID,101,VALID,0.893229,
1999-08-08, 18:03:00,VALID,0,VALID,83.0091,VALID,30.2938,VALID,23.5081,VALID,98,VALID,0.890214,
1999-08-08, 18:04:00,VALID,0,VALID,82.4101,VALID,26.4901,VALID,23.4593,VALID,58,VALID,0.910442,
1999-08-08, 18:05:00,VALID,0,VALID,82.9646,VALID,23.06,VALID,23.3432,VALID,95,VALID,1.91512,
1999-08-08, 18:06:00,VALID,0,VALID,83.861,VALID,20.8864,VALID,23.2882,VALID,98,VALID,1.42804,
1999-08-08, 18:07:00,VALID,0,VALID,84.1688,VALID,19.3581,VALID,23.2688,VALID,104,VALID,0.840461,
1999-08-08, 18:08:00,VALID,0,VALID,83.8789,VALID,18.4582,VALID,23.2632,VALID,95,VALID,0.969572,
1999-08-08, 18:09:00,VALID,0,VALID,84.301,VALID,18.1016,VALID,23.2373,VALID,105,VALID,0.698269,
1999-08-08, 18:10:00,VALID,0,VALID,84.1891,VALID,17.677,VALID,23.207,VALID,118,VALID,0.579928,
1999-08-08, 18:11:00,VALID,0,VALID,83.9348,VALID,17.3374,VALID,23.2179,VALID,216,VALID,0.309827,
1999-08-08, 18:12:00,VALID,0,VALID,84.0073,VALID,16.7261,VALID,23.1818,VALID,140,VALID,0.207698,
1999-08-08, 18:13:01,VALID,0,VALID,84.1535,VALID,16.2507,VALID,23.1756,VALID,157,VALID,0.0502534,
1999-08-08, 18:14:00,VALID,0,VALID,84.4752,VALID,15.4695,VALID,23.1762,VALID,156,VALID,0.332442,
1999-08-08, 18:15:00,VALID,0,VALID,84.6316,VALID,14.0771,VALID,23.1476,VALID,88,VALID,0.778372,
1999-08-08, 18:16:00,VALID,0,VALID,84.6393,VALID,13.279,VALID,23.1021,VALID,88,VALID,0.513158,
1999-08-08, 18:17:00,VALID,0,VALID,85.214,VALID,12.5828,VALID,23.0568,VALID,90,VALID,0.754856,
1999-08-08, 18:18:00,VALID,0,VALID,85.5688,VALID,11.53,VALID,23.0209,VALID,89,VALID,1.11979,
1999-08-08, 18:19:00,VALID,0,VALID,85.7163,VALID,10.8338,VALID,22.986,VALID,86,VALID,0.767064,
1999-08-08, 18:20:00,VALID,0,VALID,85.9363,VALID,10.0696,VALID,22.8951,VALID,106,VALID,0.425686,
1999-08-08, 18:21:00,VALID,0,VALID,86.2555,VALID,8.84701,VALID,22.8634,VALID,96,VALID,0.94109,
1999-08-08, 18:22:00,VALID,0,VALID,86.6942,VALID,7.42062,VALID,22.7957,VALID,96,VALID,1.35588,
1999-08-08, 18:23:00,VALID,0,VALID,87.1418,VALID,5.89235,VALID,22.7049,VALID,96,VALID,1.2942,
1999-08-08, 18:24:01,VALID,0,VALID,87.6492,VALID,4.75463,VALID,22.6282,VALID,96,VALID,1.58244,
1999-08-08, 18:25:00,VALID,0,VALID,87.8819,VALID,4.00748,VALID,22.5829,VALID,96,VALID,1.51204,
1999-08-08, 18:26:00,VALID,0,VALID,88.1286,VALID,3.15843,VALID,22.5444,VALID,97,VALID,1.46354,
1999-08-08, 18:27:00,VALID,0,VALID,88.0828,VALID,2.44524,VALID,22.5015,VALID,87,VALID,0.837377,
1999-08-08, 18:28:00,VALID,0,VALID,88.4744,VALID,1.85091,VALID,22.4809,VALID,95,VALID,1.19684,
1999-08-08, 18:29:00,VALID,0,VALID,88.3727,VALID,1.52827,VALID,22.4777,VALID,100,VALID,1.46432,
1999-08-08, 18:30:00,VALID,0,VALID,88.5075,VALID,1.35847,VALID,22.4715,VALID,99,VALID,1.36965,
1999-08-08, 18:31:00,VALID,0,VALID,88.6982,VALID,1.17168,VALID,22.4615,VALID,100,VALID,1.28043,
1999-08-08, 18:32:00,VALID,0,VALID,88.7745,VALID,1.12073,VALID,22.4821,VALID,98,VALID,1.28783,
1999-08-08, 18:33:00,VALID,0,VALID,87.9543,VALID,0.984888,VALID,22.4589,VALID,89,VALID,1.68117,
1999-08-08, 18:34:00,VALID,0,VALID,88.0904,VALID,0.781118,VALID,22.4171,VALID,88,VALID,1.69231,
1999-08-08, 18:35:01,VALID,0,VALID,88.2773,VALID,0.713195,VALID,22.3686,VALID,94,VALID,1.53248,
1999-08-08, 18:36:00,VALID,0,VALID,88.2379,VALID,0.61131,VALID,22.343,VALID,80,VALID,1.47447,
1999-08-08, 18:37:00,VALID,0,VALID,88.4833,VALID,0.594329,VALID,22.2854,VALID,73,VALID,0.975718,
1999-08-08, 18:38:00,VALID,0,VALID,88.7211,VALID,0.730176,VALID,22.2525,VALID,86,VALID,0.976357,
1999-08-08, 18:39:00,VALID,0,VALID,89.1675,VALID,0.81508,VALID,22.2337,VALID,104,VALID,1.10547,
1999-08-08, 18:40:00,VALID,0,VALID,89.3213,VALID,0.696214,VALID,22.2366,VALID,98,VALID,2.04174,
1999-08-08, 18:41:00,VALID,0,VALID,89.1357,VALID,0.424521,VALID,22.2266,VALID,86,VALID,0.903083,
1999-08-08, 18:42:00,VALID,0,VALID,89.1662,VALID,0.271693,VALID,22.2143,VALID,87,VALID,1.4357,
1999-08-08, 18:43:00,VALID,0,VALID,89.3913,VALID,0.135847,VALID,22.1558,VALID,100,VALID,1.49116,
1999-08-08, 18:44:00,VALID,0,VALID,89.4116,VALID,0.0849042,VALID,22.1631,VALID,104,VALID,0.936928,
1999-08-08, 18:45:01,VALID,0,VALID,89.3874,VALID,0.0679233,VALID,22.1623,VALID,100,VALID,0.622677,
1999-08-08, 18:46:01,VALID,0,VALID,89.4396,VALID,0.0169808,VALID,22.1534,VALID,105,VALID,0.628289,
1999-08-08, 18:47:00,VALID,0,VALID,89.3086,VALID,0,VALID,22.1405,VALID,101,VALID,0.762952,
1999-08-08, 18:48:00,VALID,0,VALID,89.2857,VALID,0,VALID,22.141,VALID,102,VALID,1.1139,
1999-08-08, 18:49:00,VALID,0,VALID,89.4065,VALID,0,VALID,22.1313,VALID,96,VALID,1.07496,
1999-08-08, 18:50:00,VALID,0,VALID,89.5222,VALID,-0.0169808,VALID,22.1081,VALID,92,VALID,0.988582,
1999-08-08, 18:51:00,VALID,0,VALID,89.5655,VALID,0,VALID,22.0726,VALID,96,VALID,1.13343,
1999-08-08, 18:52:00,VALID,0,VALID,89.7549,VALID,-0.0509425,VALID,22.0246,VALID,97,VALID,1.32755,
1999-08-08, 18:53:00,VALID,0,VALID,90.0143,VALID,-0.0339617,VALID,21.9893,VALID,97,VALID,1.03294,
1999-08-08, 18:54:00,VALID,0,VALID,90.247,VALID,-0.0169808,VALID,21.9529,VALID,99,VALID,0.907689,
1999-08-08, 18:55:00,VALID,0,VALID,90.4352,VALID,-0.0169808,VALID,21.9141,VALID,91,VALID,1.03865,
1999-08-08, 18:56:00,VALID,0,VALID,90.6222,VALID,-0.0169808,VALID,21.8718,VALID,99,VALID,0.989926,
1999-08-08, 18:57:01,VALID,0,VALID,90.8053,VALID,0,VALID,21.8433,VALID,100,VALID,0.542019,
1999-08-08, 18:58:00,VALID,0,VALID,90.9439,VALID,-0.0169808,VALID,21.7883,VALID,97,VALID,1.18069,
1999-08-08, 18:59:00,VALID,0,VALID,91.2084,VALID,-0.0169808,VALID,21.7533,VALID,98,VALID,1.54297,
1999-08-08, 19:00:00,VALID,0,VALID,91.3737,VALID,-0.0169808,VALID,21.7366,VALID,94,VALID,1.28925,
1999-08-08, 19:01:00,VALID,0,VALID,91.4538,VALID,-0.0339617,VALID,21.7506,VALID,97,VALID,1.303,
1999-08-08, 19:02:00,VALID,0,VALID,91.4792,VALID,-0.0509425,VALID,21.7565,VALID,97,VALID,1.0734,
1999-08-08, 19:03:00,VALID,0,VALID,91.5187,VALID,-0.0679233,VALID,21.728,VALID,78,VALID,1.4889,
1999-08-08, 19:04:00,VALID,0,VALID,91.7984,VALID,-0.0849042,VALID,21.6862,VALID,99,VALID,0.580387,
1999-08-08, 19:05:00,VALID,0,VALID,91.9218,VALID,-0.0509425,VALID,21.6666,VALID,105,VALID,0.345228,
1999-08-08, 19:06:00,VALID,0,VALID,92.0197,VALID,-0.0679233,VALID,21.6604,VALID,102,VALID,0.099359,
1999-08-08, 19:07:00,VALID,0,VALID,92.0769,VALID,-0.0849042,VALID,21.6668,VALID,88,VALID,0.098273,
1999-08-08, 19:08:00,VALID,0,VALID,91.9141,VALID,-0.0849042,VALID,21.6827,VALID,4,VALID,0.19093,
1999-08-08, 19:09:00,VALID,0,VALID,91.9179,VALID,-0.0339617,VALID,21.6959,VALID,66,VALID,0.337838,
1999-08-08, 19:10:00,VALID,0,VALID,91.8709,VALID,-0.0509425,VALID,21.7218,VALID,90,VALID,0.783717,
1999-08-08, 19:11:00,VALID,0,VALID,91.7386,VALID,0,VALID,21.7334,VALID,91,VALID,0.996505,
1999-08-08, 19:12:00,VALID,0,VALID,91.8213,VALID,0.0169808,VALID,21.7592,VALID,82,VALID,0.437089,
1999-08-08, 19:13:00,VALID,0,VALID,91.4869,VALID,0.0339617,VALID,21.7689,VALID,354,VALID,0.631546,
1999-08-08, 19:14:00,VALID,0,VALID,91.7043,VALID,0.0339617,VALID,21.7466,VALID,323,VALID,0.201723,
1999-08-08, 19:15:00,VALID,0,VALID,91.9052,VALID,0.0169808,VALID,21.7396,VALID,300,VALID,0.184416,
1999-08-08, 19:16:00,VALID,0,VALID,91.8951,VALID,0.0339617,VALID,21.7762,VALID,299,VALID,0.294398,
1999-08-08, 19:17:01,VALID,0,VALID,91.9052,VALID,0,VALID,21.7692,VALID,301,VALID,0.379645,
1999-08-08, 19:18:00,VALID,0,VALID,91.979,VALID,0.0339617,VALID,21.7654,VALID,268,VALID,0.331826,
1999-08-08, 19:19:00,VALID,0,VALID,92.007,VALID,0.0339617,VALID,21.7757,VALID,291,VALID,0.423314,
1999-08-08, 19:20:00,VALID,0,VALID,92.054,VALID,0.0339617,VALID,21.7757,VALID,266,VALID,0.0491365,
1999-08-08, 19:21:00,VALID,0,VALID,92.1265,VALID,0.0339617,VALID,21.7983,VALID,255,VALID,0.113176,
1999-08-08, 19:22:00,VALID,0,VALID,92.1621,VALID,0.0339617,VALID,21.8021,VALID,335,VALID,0.41246,
1999-08-08, 19:23:00,VALID,0,VALID,91.862,VALID,-0.0679233,VALID,21.7867,VALID,305,VALID,0.304482,
1999-08-08, 19:24:00,VALID,0,VALID,91.7615,VALID,-0.0679233,VALID,21.7609,VALID,294,VALID,0.436547,
1999-08-08, 19:25:00,VALID,0,VALID,91.9383,VALID,-0.0169808,VALID,21.7512,VALID,304,VALID,0.117399,
1999-08-08, 19:26:00,VALID,0,VALID,92.0718,VALID,-0.0169808,VALID,21.7673,VALID,4,VALID,0.342722,
1999-08-08, 19:27:00,VALID,0,VALID,92.0985,VALID,-0.0509425,VALID,21.7735,VALID,118,VALID,0.280428,
1999-08-08, 19:28:00,VALID,0,VALID,91.9764,VALID,-0.0849042,VALID,21.7935,VALID,213,VALID,0.187706,
1999-08-08, 19:29:00,VALID,0,VALID,91.8531,VALID,-0.0509425,VALID,21.7929,VALID,304,VALID,0.402027,
1999-08-08, 19:30:00,VALID,0,VALID,91.6178,VALID,-0.0509425,VALID,21.8096,VALID,297,VALID,0.0460737,
1999-08-08, 19:31:00,VALID,0,VALID,91.6484,VALID,-0.0679233,VALID,21.8261,VALID,303,VALID,0.112459,
1999-08-08, 19:32:00,VALID,0,VALID,91.862,VALID,-0.0849042,VALID,21.8226,VALID,79,VALID,0.65987,
1999-08-08, 19:33:00,VALID,0,VALID,91.8353,VALID,-0.0679233,VALID,21.8363,VALID,110,VALID,1.07686,
1999-08-08, 19:34:00,VALID,0,VALID,91.7997,VALID,-0.0509425,VALID,21.8358,VALID,96,VALID,1.06826,
1999-08-08, 19:35:00,VALID,0,VALID,91.7119,VALID,-0.0849042,VALID,21.8352,VALID,102,VALID,0.833265,
1999-08-08, 19:36:00,VALID,0,VALID,91.7272,VALID,-0.0849042,VALID,21.8328,VALID,113,VALID,0.653577,
1999-08-08, 19:37:00,VALID,0,VALID,91.7895,VALID,-0.0679233,VALID,21.8231,VALID,97,VALID,1.08129,
1999-08-08, 19:38:00,VALID,0,VALID,91.7259,VALID,-0.0849042,VALID,21.8067,VALID,103,VALID,0.542668,
1999-08-08, 19:39:00,VALID,0,VALID,91.7018,VALID,-0.0169808,VALID,21.7744,VALID,100,VALID,0.751234,
1999-08-08, 19:40:00,VALID,0,VALID,91.7997,VALID,-0.0509425,VALID,21.7382,VALID,107,VALID,0.669398,
1999-08-08, 19:41:00,VALID,0,VALID,91.8823,VALID,-0.0509425,VALID,21.7129,VALID,102,VALID,0.61761,
1999-08-08, 19:42:00,VALID,0,VALID,91.9637,VALID,-0.0339617,VALID,21.7094,VALID,90,VALID,0.505962,
1999-08-08, 19:43:00,VALID,0,VALID,91.9841,VALID,-0.0509425,VALID,21.7126,VALID,86,VALID,0.160156,
1999-08-08, 19:44:00,VALID,0,VALID,91.8747,VALID,-0.0849042,VALID,21.7458,VALID,154,VALID,0.21875,
1999-08-08, 19:45:00,VALID,0,VALID,91.8238,VALID,-0.0339617,VALID,21.7423,VALID,164,VALID,0.214527,
1999-08-08, 19:46:00,VALID,0,VALID,91.8912,VALID,-0.0679233,VALID,21.7129,VALID,226,VALID,0.0264423,
1999-08-08, 19:47:00,VALID,0,VALID,91.9663,VALID,-0.0849042,VALID,21.7126,VALID,252,VALID,0.000822368,
1999-08-08, 19:48:00,VALID,0,VALID,91.9637,VALID,-0.0849042,VALID,21.7097,VALID,287,VALID,0.225038,